Regional Weather Roundup
Issued by NWS

Home | Current Version | Previous Version | Graphics & Text | Print | Product List | Glossary On
Versions: 1 2 3 4 5 6 7 8 9 10 11 12 13 14 15 16 17 18 19 20 21 22 23 24 25 26 27 28 29 30 31 32 33 34 35 36 37 38 39 40 41 42 43 44 45 46 47 48 49 50
000
ASUS43 KTOP 241308
RWRKS

WEATHER ROUNDUP FOR KANSAS
NATIONAL WEATHER SERVICE GOODLAND KS
800 AM CDT SUN JUL 24 2016

NOTE:  "FAIR" INDICATES FEW OR NO CLOUDS BELOW 12,000 FEET WITH NO
SIGNIFICANT WEATHER AND/OR OBSTRUCTIONS TO VISIBILITY.

KSZ001>006-013>018-027>032-041>047-241400-
NORTHWEST KANSAS

CITY           SKY/WX    TMP DP  RH WIND       PRES   REMARKS
GOODLAND       MOSUNNY   71  64  78 NE7       30.06R
HAYS           CLOUDY    77  61  57 W5        29.93R
HILL CITY      LGT RAIN  75  68  78 N18       29.96F
RUSSELL        PTSUNNY   75  70  84 N7        29.92R
$$

KSZ061>065-074>080-084>089-241400-
SOUTHWEST KANSAS

CITY           SKY/WX    TMP DP  RH WIND       PRES   REMARKS
DODGE CITY     CLOUDY    74  67  78 CALM      29.96R
ELKHART          N/A     74  62  66 SE5         N/A
GARDEN CITY    SUNNY     71  64  78 NW7       29.97S
GREAT BEND     CLOUDY    75  64  69 S6        29.92S
LIBERAL        CLOUDY    73  63  68 CALM      30.00S
PRATT          CLOUDY    74  66  75 S8        29.94R
$$

KSZ066>073-081>083-090>101-241400-
SOUTHEAST KANSAS

CITY           SKY/WX    TMP DP  RH WIND       PRES   REMARKS
CHANUTE        CLOUDY    79  72  79 S5        29.95R
COFFEYVILLE    CLOUDY    81  73  76 SW6       29.95R
HUTCHINSON     CLOUDY    78  68  71 E7        29.94R
MEDICINE LODGE   N/A     81  66  60 S6        29.93R
NEWTON         CLOUDY    81  69  67 S7        29.96R
PARSONS        CLOUDY    78  73  84 CALM      29.97R
WICHITA INTL   CLOUDY    79  69  71 S7        29.93S
WICHITA JABRA  CLOUDY    80  70  71 S6        29.94S
WICHITA MCCONL CLOUDY    80  69  68 S9        29.95R
WINFIELD       CLOUDY    80  71  74 SE3       29.96S
$$

KSZ007>012-019>026-033>040-048>060-102>105-241400-
NORTHEAST KANSAS

CITY           SKY/WX    TMP DP  RH WIND       PRES   REMARKS
CONCORDIA      CLOUDY    78  67  68 S10       29.96R
EMPORIA        PTSUNNY   83  71  67 S8        29.93F
LAWRENCE       MOSUNNY   81  72  74 SW6       29.90S
MANHATTAN      PTSUNNY   79  69  71 NW7       29.93R
MARYSVILLE     CLOUDY    82  70  65 SW7       29.94R
OLATHE IND     MOSUNNY   81  72  74 SW10      29.93S
OLATHE EXE     CLOUDY    79  71  76 SW7       29.93S
SALINA         LGT RAIN  81  72  74 SE7       29.92S
TOPEKA BILLARD   N/A     84  70  62 W6        29.90R
TOPEKA FORBES  MOSUNNY   84  72  67 SW9       29.91R
$$




USA.gov is the U.S. government's official web portal to all federal, state and local government web resources and services.